sat.trackr.live / text

‹ back to catalog

STARLINK-32207

NORAD 60259 · 2024-131E

PAYLOAD ACTIVE UNKNOWN

§ Identity

Operator
Country
US
Launch date
2024-07-27
Launch site
AFETR
Launch vehicle
Mass (kg)
RCS (m²)

Purposes: comms

External: N2YO · Heavens-Above · Gunter

§ Orbital elements

Epoch: 2026-05-25T03:52:05.915712Z

Period
94.11 min
Inclination
53.1613°
Eccentricity
0.0001376
Mean motion
15.30195223 rev/d
Perigee alt
474.3 km
Apogee alt
476.2 km
Semi-major
6,853.4 km
B*
5.8858e-5
RAAN
57.4610°
Arg perigee
80.0377°
Mean anomaly
280.0779°
Rev number
10,342

§ Raw data

STARLINK-322071 60259U 24131E   26145.16117958  .00001384  00000+0  58858-4 0  99922 60259  53.1613  57.4610 0001376  80.0377 280.0779 15.30195223103422

JSON: /api/v1/satellites/60259 · /tle

For live sub-satellite position, see the globe view (requires WebGL).

§ Visibility from observer

Set your observer location to see the next 7 days of passes ≥ 10°. The values pass through the URL so the page stays shareable.

No JS? Fill the form by hand. The geolocation button needs JavaScript.